STARLINK-32863, 62968

Orbit data source: Space-Track

STARLINK-32863, 62968 is a payload satellite owned by SpaceX/Seattle (US) in LEO that was launched on Tue, 11 Feb 2025 UTC via an FALCON 9 launch vehicle from the Air Force Western Test Range (AFWTR). Payload-class satellites include a variety of spacecraft equipped with specific instruments for various scientific and technological missions. These include communications satellites like Starlink; space stations such as the ISS; scientific satellites like the Hubble; Earth observation satellites from companies like Planet Labs, Umbra, and HawkEye 360; GPS; miniature CubeSats for education and research; and military/defense satellites.

Loading next visibility...
Identifier
62968, 2025-029W
Orbit
LEO
Country
Flag of USUS
Related business
Manufacturer
SpaceX/Seattle
Mission
Operational Commercial Communications
Bus & Motor
STARLINK V2M, Unknown motor
Mass
730 kg wet, ~700 kg dry
Launch date (UTC)
2025-02-11 (1 year ago)
Launch vehicle
FALCON 9
Launch site
Air Force Western Test Range (AFWTR)
Object type
Payload
Rocket body
Debris
Shape & HBR
Box + 2 Pan, 17.7 m
Radar Cross Section
33.884 m², Large (>1 m²)

Expand to show TLE details & history
Last TLE update: 2 days ago

TLE from 2 days ago
0 STARLINK-32863
1 62968U 25029W   26170.12188552  .00019848  00000-0  64933-3 0  9995
2 62968  53.1598 120.8655 0001551  83.9707 276.1471 15.31716350 75997
Epoch: 2026-06-19T02:55Z
TLE epoch observation values (Epoch: 2026-06-19T02:55:30.908Z)
Latitude
-0.00006°
Longitude
169.63127°
Altitude
471.478 km
Speed
7.632 km/s
True Right ascension
08h 03m 27s
True Declination
0° 00' 00"
Sunlit
Object was in daylight at epoch
Visualization orbit readout
Latitude
Unknown
Longitude
Unknown
Altitude
Unknown
Speed
Unknown
Apparent Right ascension
Unknown
Apparent Declination
Unknown
Sunlit
N/A
Visualization observer readout
Local Sidereal Time
07:16:25
Azimuth
Unknown
Elevation
Unknown
Doppler factor
Unknown
Orbital elements
Apogee altitude
472.01 km
Perigee altitude
469.886 km
Semi-major axis
6,849.085 km
Eccentricity
0.00016
Inclination
53.1598°
RAAN
120.8655°
Arg. of periapsis
83.9707°
True anomaly
276.12943°
Mean anomaly
276.1471°
Eccentric anomaly
276.13826°
Mean motion
3.82908 °/min
Orbital period
94.02 mins
BSTAR
0.00064933
Loading maneuver chart data...
Computing Atmospheric mass density...
Loading historical data...
Loading historical data...
Loading historical data...
Loading historical data...
Loading historical data...
Loading historical data...
Loading historical data...

Documentation

Showing up to 5 results
|